OYCFL EKRK-EKAH

Flight info

Callsign OYCFL
Flight time 0h 32m
Altitude 6000
Route TNO
Aircraft C414/L-SBDFGRY/S

Departure

Time 2026-04-29 21:40
Airport Copenhagen Roskilde Airport (EKRK)

Arrival

Time 2026-04-29 22:12
Airport Aarhus Airport (EKAH)
Time Latitude Longitude Altitude Speed Heading
2026-04-29 21:26 55.59001 12.12869 137 ft 0 kts 117°
2026-04-29 21:36 55.59000 12.12872 137 ft 2 kts 117°
2026-04-29 21:36 55.58958 12.12917 137 ft 11 kts 139°
2026-04-29 21:37 55.58919 12.13023 137 ft 10 kts 115°
2026-04-29 21:37 55.58899 12.13159 137 ft 13 kts 74°
2026-04-29 21:37 55.58943 12.13322 137 ft 10 kts 63°
2026-04-29 21:37 55.58969 12.13415 137 ft 0 kts 64°
2026-04-29 21:38 55.58970 12.13420 137 ft 1 kts 65°
2026-04-29 21:38 55.58971 12.13422 137 ft 0 kts 65°
2026-04-29 21:38 55.58996 12.13501 136 ft 12 kts 60°
2026-04-29 21:38 55.58969 12.13612 134 ft 10 kts 199°
2026-04-29 21:39 55.58929 12.13540 112 ft 3 kts 206°
2026-04-29 21:39 55.58925 12.13537 132 ft 6 kts 207°
2026-04-29 21:39 55.58722 12.13321 139 ft 61 kts 212°
2026-04-29 21:39 55.58242 12.12810 174 ft 93 kts 212°
2026-04-29 21:40 55.57687 12.12184 357 ft 98 kts 213°
2026-04-29 21:40 55.57116 12.11536 623 ft 97 kts 217°
2026-04-29 21:40 55.56665 12.10673 821 ft 96 kts 241°
2026-04-29 21:40 55.56418 12.09546 1033 ft 98 kts 270°
2026-04-29 21:41 55.56562 12.08427 1220 ft 98 kts 297°
2026-04-29 21:41 55.56812 12.07318 1481 ft 95 kts 295°
2026-04-29 21:41 55.57075 12.06209 1674 ft 99 kts 304°
2026-04-29 21:41 55.57362 12.05103 1941 ft 97 kts 293°
2026-04-29 21:42 55.57593 12.03925 2121 ft 103 kts 300°
2026-04-29 21:42 55.57889 12.02800 2386 ft 97 kts 301°
2026-04-29 21:42 55.58083 12.02055 2503 ft 102 kts 304°
2026-04-29 21:42 55.58563 12.00601 2757 ft 104 kts 312°
2026-04-29 21:43 55.58973 11.99501 2959 ft 113 kts 308°
2026-04-29 21:43 55.59401 11.98287 3224 ft 119 kts 308°
2026-04-29 21:43 55.59839 11.97009 3512 ft 123 kts 307°
2026-04-29 21:43 55.60283 11.95692 3819 ft 126 kts 307°
2026-04-29 21:44 55.60733 11.94354 4182 ft 127 kts 307°
2026-04-29 21:44 55.61186 11.92996 4495 ft 129 kts 307°
2026-04-29 21:44 55.61467 11.92154 4693 ft 129 kts 307°
2026-04-29 21:47 55.61710 11.91425 4866 ft 130 kts 307°
2026-04-29 21:47 55.62170 11.90050 5196 ft 130 kts 307°
2026-04-29 21:47 55.62630 11.88669 5515 ft 131 kts 307°
2026-04-29 21:48 55.63104 11.87256 5779 ft 136 kts 308°
2026-04-29 21:48 55.63599 11.85814 6053 ft 139 kts 308°
2026-04-29 21:48 55.64102 11.84336 6321 ft 141 kts 308°
2026-04-29 21:48 55.64611 11.82830 6534 ft 148 kts 308°
2026-04-29 21:49 55.65201 11.81140 6337 ft 173 kts 308°
2026-04-29 21:49 55.65866 11.79285 6283 ft 181 kts 308°
2026-04-29 21:49 55.66525 11.77443 6512 ft 173 kts 308°
2026-04-29 21:49 55.67149 11.75667 6762 ft 167 kts 308°
2026-04-29 21:50 55.67744 11.73942 7010 ft 162 kts 308°
2026-04-29 21:50 55.68320 11.72244 7248 ft 159 kts 308°
2026-04-29 21:50 55.68880 11.70575 7490 ft 156 kts 308°
2026-04-29 21:50 55.69423 11.68945 7729 ft 154 kts 308°
2026-04-29 21:51 55.69964 11.67310 7975 ft 153 kts 308°
2026-04-29 21:51 55.70495 11.65687 8229 ft 152 kts 308°
2026-04-29 21:51 55.71543 11.62464 8728 ft 150 kts 308°
2026-04-29 21:52 55.72062 11.60861 8984 ft 150 kts 308°
2026-04-29 21:52 55.72576 11.59257 9245 ft 149 kts 308°
2026-04-29 21:52 55.73086 11.57657 9503 ft 149 kts 308°
2026-04-29 21:52 55.73593 11.56057 9767 ft 148 kts 308°
2026-04-29 21:53 55.74094 11.54462 10036 ft 148 kts 308°
2026-04-29 21:53 55.74593 11.52867 10302 ft 148 kts 308°
2026-04-29 21:53 55.75111 11.51222 10365 ft 159 kts 308°
2026-04-29 21:53 55.75675 11.49468 10379 ft 166 kts 308°
2026-04-29 21:54 55.76254 11.47674 10378 ft 168 kts 308°
2026-04-29 21:54 55.76844 11.45892 10379 ft 168 kts 308°
2026-04-29 21:54 55.77444 11.44110 10379 ft 168 kts 308°
2026-04-29 21:54 55.78043 11.42334 10381 ft 167 kts 308°
2026-04-29 21:55 55.78631 11.40582 10377 ft 167 kts 308°
2026-04-29 21:55 55.79226 11.38813 10375 ft 166 kts 308°
2026-04-29 21:55 55.79818 11.37052 10376 ft 166 kts 308°
2026-04-29 21:55 55.80408 11.35286 10376 ft 166 kts 308°
2026-04-29 21:56 55.80998 11.33517 10376 ft 166 kts 308°
2026-04-29 21:56 55.81588 11.31748 10375 ft 166 kts 308°
2026-04-29 21:56 55.82181 11.29981 10360 ft 166 kts 308°
2026-04-29 21:56 55.82585 11.28792 10366 ft 166 kts 308°
2026-04-29 21:57 55.83175 11.27052 10368 ft 167 kts 308°
2026-04-29 21:57 55.83778 11.25292 10367 ft 165 kts 312°
2026-04-29 21:57 55.84687 11.24321 10373 ft 152 kts 355°
2026-04-29 21:57 55.85732 11.24047 10382 ft 153 kts 347°
2026-04-29 21:58 55.86742 11.23401 10378 ft 155 kts 342°
2026-04-29 21:58 55.87768 11.22657 10235 ft 163 kts 341°
2026-04-29 21:58 55.88830 11.21869 10082 ft 167 kts 341°
2026-04-29 21:58 55.89909 11.21065 9924 ft 169 kts 341°
2026-04-29 21:59 55.91000 11.20250 9774 ft 171 kts 341°
2026-04-29 21:59 55.92099 11.19429 9617 ft 172 kts 341°
2026-04-29 21:59 55.93201 11.18605 9459 ft 172 kts 341°
2026-04-29 21:59 55.94310 11.17778 9301 ft 173 kts 341°
2026-04-29 22:00 55.95421 11.16946 9144 ft 173 kts 341°
2026-04-29 22:00 55.96534 11.16112 8990 ft 174 kts 341°
2026-04-29 22:00 55.97649 11.15277 8833 ft 174 kts 341°
2026-04-29 22:00 55.98765 11.14439 8678 ft 174 kts 341°
2026-04-29 22:01 55.99888 11.13598 8455 ft 177 kts 341°
2026-04-29 22:01 56.01012 11.12751 8198 ft 173 kts 341°
2026-04-29 22:01 56.02116 11.11921 7939 ft 170 kts 341°
2026-04-29 22:01 56.03187 11.11115 7687 ft 169 kts 341°
2026-04-29 22:02 56.04268 11.10304 7435 ft 168 kts 341°
2026-04-29 22:02 56.05339 11.09498 7180 ft 166 kts 341°
2026-04-29 22:02 56.06397 11.08700 6930 ft 164 kts 341°
2026-04-29 22:02 56.07449 11.07907 6669 ft 164 kts 341°
2026-04-29 22:03 56.08497 11.07119 6403 ft 164 kts 341°
2026-04-29 22:03 56.09546 11.06328 6143 ft 164 kts 340°
2026-04-29 22:03 56.10597 11.05534 5879 ft 164 kts 340°
2026-04-29 22:03 56.11647 11.04742 5621 ft 164 kts 340°
2026-04-29 22:04 56.12701 11.03945 5364 ft 165 kts 340°
2026-04-29 22:04 56.13758 11.03145 5106 ft 165 kts 339°
2026-04-29 22:04 56.14818 11.02344 4841 ft 165 kts 339°
2026-04-29 22:04 56.15878 11.01541 4579 ft 165 kts 339°
2026-04-29 22:05 56.16941 11.00736 4327 ft 167 kts 338°
2026-04-29 22:05 56.18013 10.99924 4070 ft 168 kts 338°
2026-04-29 22:05 56.20149 10.98192 3559 ft 169 kts 331°
2026-04-29 22:06 56.21163 10.97131 3290 ft 169 kts 330°
2026-04-29 22:06 56.22180 10.96067 3037 ft 169 kts 330°
2026-04-29 22:06 56.23186 10.95025 2920 ft 162 kts 330°
2026-04-29 22:06 56.24151 10.94029 2820 ft 159 kts 330°
2026-04-29 22:07 56.25073 10.92936 2736 ft 159 kts 322°
2026-04-29 22:07 56.25933 10.91692 2605 ft 159 kts 321°
2026-04-29 22:07 56.26794 10.90444 2475 ft 159 kts 321°
2026-04-29 22:07 56.27485 10.88946 2341 ft 158 kts 288°
2026-04-29 22:08 56.27745 10.87032 2217 ft 157 kts 283°
2026-04-29 22:08 56.27971 10.85129 2091 ft 158 kts 281°
2026-04-29 22:08 56.28183 10.83196 1995 ft 155 kts 280°
2026-04-29 22:08 56.28356 10.81415 1986 ft 133 kts 280°
2026-04-29 22:09 56.28512 10.79863 1914 ft 120 kts 280°
2026-04-29 22:09 56.28650 10.78407 1795 ft 123 kts 278°
2026-04-29 22:09 56.28782 10.76873 1623 ft 126 kts 281°
2026-04-29 22:09 56.28944 10.75338 1357 ft 120 kts 281°
2026-04-29 22:10 56.29110 10.73895 1118 ft 114 kts 284°
2026-04-29 22:10 56.29244 10.72506 902 ft 112 kts 281°
2026-04-29 22:10 56.29371 10.71179 832 ft 103 kts 283°
2026-04-29 22:10 56.29504 10.69948 705 ft 98 kts 282°
2026-04-29 22:11 56.29611 10.68768 602 ft 94 kts 283°
2026-04-29 22:11 56.29747 10.67625 486 ft 93 kts 282°
2026-04-29 22:11 56.29860 10.66498 375 ft 92 kts 281°
2026-04-29 22:11 56.29979 10.65392 266 ft 91 kts 282°
2026-04-29 22:12 56.30096 10.64275 142 ft 87 kts 280°
2026-04-29 22:12 56.30194 10.63283 78 ft 70 kts 279°
2026-04-29 22:12 56.30242 10.62929 79 ft 14 kts 321°
2026-04-29 22:12 56.30344 10.62928 80 ft 18 kts 11°
2026-04-29 22:13 56.30477 10.62972 80 ft 20 kts 10°
2026-04-29 22:13 56.30555 10.62993 80 ft 0 kts